This is the latest recevied weather packets stored in our database for station/object OH2MUI. If no packets are shown the sender has not sent any weather packets the latest 1 day(s).
| Time | Temp. | Humidity | Pressure | Rain* | Wind** | Luminosity | Snow |
|---|---|---|---|---|---|---|---|
| 1778006919 | 6.11° C | 64% | 1008.5 hPa | 0 mm | 0.45 m/s, 222° | - | - |
| 1778005885 | 6.11° C | 61% | - | 0 mm | 1.34 m/s, 230° | - | - |
| 1778005879 | 6.11° C | 61% | 1008.3 hPa | 0 mm | 1.34 m/s, 230° | - | - |
| 1778004899 | 6.67° C | 58% | 1008.1 hPa | 0 mm | 1.34 m/s, 228° | - | - |
| 1778003772 | 7.22° C | 58% | 1008.1 hPa | 0 mm | 1.79 m/s, 231° | - | - |
| 1778002739 | 8.33° C | 57% | 1007.8 hPa | 0 mm | 1.34 m/s, 236° | - | - |
| 1778002732 | 8.33° C | 57% | 1007.8 hPa | 0 mm | 1.34 m/s, 236° | - | - |
| 1778001679 | 8.89° C | 55% | 1007.6 hPa | 0 mm | 1.79 m/s, 229° | - | - |
| 1778000609 | 8.89° C | 54% | 1007.5 hPa | 0 mm | 1.79 m/s, 227° | - | - |
| 1777999470 | 8.89° C | 55% | 1007.3 hPa | 0 mm | 1.34 m/s, 231° | - | - |
| 1777998309 | 8.89° C | 55% | 1007.2 hPa | 0 mm | 1.34 m/s, 218° | - | - |
| 1777997157 | 8.89° C | 54% | 1007.2 hPa | 0 mm | 2.68 m/s, 219° | - | - |
| 1777997153 | 8.89° C | 54% | 1007.2 hPa | 0 mm | 2.68 m/s, 219° | - | - |
| 1777996079 | 8.89° C | 53% | 1007 hPa | 0 mm | 2.68 m/s, 219° | - | - |
| 1777995052 | 9.44° C | 54% | 1007 hPa | 0 mm | 2.68 m/s, 225° | - | - |
| 1777994051 | 8.89° C | 53% | 1006.9 hPa | 0 mm | 1.34 m/s, 245° | - | - |
| 1777993009 | 8.89° C | 53% | 1006.8 hPa | 0 mm | 2.24 m/s, 237° | - | - |
| 1777991934 | 8.89° C | 51% | 1006.8 hPa | 0 mm | 1.79 m/s, 227° | - | - |
| 1777990739 | 9.44° C | 48% | 1006.5 hPa | 0 mm | 2.24 m/s, 227° | - | - |
| 1777989686 | 9.44° C | 49% | 1006.6 hPa | 0 mm | 2.24 m/s, 241° | - | - |
| 1777989684 | 9.44° C | 49% | 1006.6 hPa | 0 mm | 2.24 m/s, 241° | - | - |
| 1777988564 | 10° C | 48% | 1006.4 hPa | 0 mm | 2.68 m/s, 225° | - | - |
| 1777987492 | 10° C | 49% | 1006.2 hPa | 0 mm | 2.24 m/s, 225° | - | - |
| 1777986434 | 10° C | 50% | 1006.2 hPa | 0 mm | 2.24 m/s, 237° | - | - |
| 1777985252 | 10° C | 50% | 1006.1 hPa | 0 mm | 1.79 m/s, 231° | - | - |
* Rain latest hour (hover to see other rain measurements)
** Current wind speed in m/s (hover to see current wind gust speed)